Twentynine Palms, CA

1:49 AM PDT on October 14, 2019 (GMT -0700)
Twentynine Palms Expeditionary Air Field

Weather History for KNXP - September, 2019

Change the Weather History Date:

Monday, September 16, 2019

  Actual Average Record
Temperature  
Mean Temperature 94 °F -  
Max Temperature 118 °F 93 °F 118 °F (2019)
Min Temperature 73 °F 66 °F 59 °F (2016)
Cooling Degree Days 29    
Growing Degree Days 44 (Base 50)    
Moisture  
Dew Point 24 °F    
Average Humidity 9    
Maximum Humidity 18    
Minimum Humidity 4    
Precipitation  
Precipitation 0.00 in - - ()
Sea Level Pressure  
Sea Level Pressure 29.81 in    
Wind  
Wind Speed 9 mph (SW)    
Max Wind Speed 29 mph    
Max Gust Speed 40 mph    
Visibility 10 miles    
Events      
Averages and records for this station are not official NWS values.
T = Trace of Precipitation, MM = Missing Value Source: NWS Daily Summary

Daily Weather History Graph

Daily Weather History Graph

Search for Another Location

Airport or City:

Astronomy

Sep. 16, 2019 Rise Set
Actual Time 6:28 AM PDT 6:50 PM PDT
Civil Twilight 6:03 AM PDT 7:15 PM PDT
Nautical Twilight 5:33 AM PDT 7:44 PM PDT
Astronomical Twilight 5:03 AM PDT 8:14 PM PDT
Moon 8:32 PM PDT (9/16) 8:35 AM PDT (9/16)
Length of Visible Light 13h 11m
Length of Day
12h 21m
Waning Gibbous, 94% of the Moon is Illuminated
Sep 16
Waning Gibbous
Sep 21
Last Quarter
Sep 28
New
Oct 5
First Quarter
Oct 13
Full

Hourly Weather History & Observations

Time (PDT) Temp. Dew Point Humidity Pressure Visibility Wind Dir Wind Speed Gust Speed Precip Events Conditions
12:56 AM 82.9 °F 30.9 °F 15% 29.81 in 10.0 mi Calm Calm - N/A   Clear
1:56 AM 87.1 °F 30.0 °F 13% 29.81 in 10.0 mi North 5.8 mph - N/A   Clear
2:56 AM 75.9 °F 28.9 °F 18% 29.81 in 10.0 mi NNW 4.6 mph - N/A   Clear
3:56 AM 77.0 °F 24.1 °F 14% 29.81 in 10.0 mi Calm Calm - N/A   Clear
4:56 AM 73.0 °F 25.0 °F 17% 29.82 in 10.0 mi North 6.9 mph - N/A   Clear
5:56 AM 91.0 °F 23.0 °F 8% 29.83 in 10.0 mi West 9.2 mph - N/A   Clear
6:56 AM 78.1 °F 23.0 °F 13% 29.85 in 10.0 mi ESE 3.5 mph - N/A   Clear
7:56 AM 81.0 °F 23.0 °F 12% 29.86 in 10.0 mi Calm Calm - N/A   Clear
8:56 AM 82.9 °F 23.0 °F 11% 29.87 in 10.0 mi Calm Calm - N/A   Clear
9:56 AM 100.0 °F 23.0 °F 6% 29.86 in 10.0 mi ESE 5.8 mph - N/A   Clear
10:56 AM 115.0 °F 19.0 °F 4% 29.83 in 10.0 mi South 10.4 mph 18.4 mph N/A   Clear
11:33 AM 109.0 °F 18.0 °F 4% 29.96 in 10.0 mi SSW 20.7 mph 26.5 mph N/A   Clear
11:56 AM 109.9 °F 18.0 °F 4% 29.82 in 10.0 mi SW 20.7 mph 27.6 mph N/A   Clear
12:56 PM 108.0 °F 19.0 °F 4% 29.81 in 10.0 mi SSW 23.0 mph 29.9 mph N/A   Clear
1:56 PM 109.0 °F 18.0 °F 4% 29.78 in 10.0 mi SSW 23.0 mph 35.7 mph N/A   Clear
2:56 PM 107.1 °F 23.0 °F 5% 29.76 in 10.0 mi SSW 28.8 mph 40.3 mph N/A   Clear
3:56 PM 102.9 °F 28.9 °F 7% 29.76 in 10.0 mi SSW 28.8 mph 38.0 mph N/A   Clear
4:56 PM 102.0 °F 33.1 °F 9% 29.76 in 10.0 mi SW 25.3 mph 34.5 mph N/A   Clear
5:56 PM 102.0 °F 32.0 °F 9% 29.75 in 10.0 mi WSW 17.3 mph - N/A   Clear
6:56 PM 99.0 °F 37.0 °F 12% 29.75 in 10.0 mi SW 18.4 mph 26.5 mph N/A   Clear
7:56 PM 99.0 °F 37.9 °F 12% 29.78 in 10.0 mi WSW 9.2 mph - N/A   Clear
8:56 PM 99.0 °F 30.9 °F 9% 29.79 in 10.0 mi WSW 13.8 mph - N/A   Partly Cloudy
9:56 PM 97.0 °F 23.0 °F 7% 29.79 in 10.0 mi SW 19.6 mph 25.3 mph N/A   Clear
10:56 PM 97.0 °F 14.0 °F 5% 29.78 in 10.0 mi WSW 16.1 mph - N/A   Clear
11:56 PM 93.9 °F 6.1 °F 4% 29.79 in 10.0 mi WSW 21.9 mph 29.9 mph N/A   Clear